Regional Weather Roundup
Issued by NWS Sioux Falls, SD

Home | Current Version | Previous Version | Graphics & Text | Print | Product List | Glossary On
Versions: 1 2 3 4 5 6 7 8 9 10 11 12 13 14 15 16 17 18 19 20 21 22 23 24 25 26 27 28 29 30 31 32 33 34 35 36 37 38 39 40 41 42 43 44 45 46 47 48 49 50
000
ASUS43 KFSD 231010
RWRFSD

WEATHER ROUNDUP FOR SE SOUTH DAKOTA/SW MINNESOTA/NW IOWA
NATIONAL WEATHER SERVICE SIOUX FALLS SD
500 AM CDT SAT JUL 23 2016

NOTE: "FAIR" INDICATES FEW OR NO CLOUDS BELOW 12,000 FEET WITH NO
SIGNIFICANT WEATHER AND OR OBSTRUCTIONS TO VISIBILITY.


SDZ038>040-050-052>070-231100-
SOUTHEAST SOUTH DAKOTA

CITY           SKY/WX    TMP DP  RH WIND       PRES   REMARKS
BROOKINGS      CLOUDY    78  76  93 E9        29.88F
CHAMBERLAIN    CLOUDY    73  69  89 SE12G18   29.83F
HURON          CLOUDY    77  74  90 E8        29.80F
MADISON        CLOUDY    77  77 100 E9        29.89F FOG
MITCHELL       TSTM      74  72  93 S12G30    29.84S FOG
SIOUX FALLS    CLOUDY    80  77  90 E8        29.86F
WINNER         FAIR      78  70  76 SE8       29.87F
YANKTON        CLOUDY    79  70  73 SW7       29.85F
$$

MNZ071-072-080-081-089-090-097-098-231100-
SOUTHWEST MINNESOTA

CITY           SKY/WX    TMP DP  RH WIND       PRES   REMARKS
FAIRMONT       CLOUDY    77  59  53 SE6       29.91F
JACKSON        CLOUDY    79  75  89 SE7       29.92F FOG
LUVERNE        CLOUDY    77  73  88 E5        29.88F
MARSHALL       CLOUDY    75  74  96 SE3       29.91F
MONTEVIDEO     CLOUDY    72  70  94 SE3       29.94S
REDWOOD FALLS  CLOUDY    73  71  93 E8        29.92S
TRACY          FOG       76  75  99 E3        29.91F VSB 1/4
WINDOM         PTCLDY    79  75  89 SE8       29.91F
WORTHINGTON    CLOUDY    78  77  96 E7        29.91F
$$

IAZ001>003-012>014-020>022-031-032-NEZ013-014-SDZ071-231100-
NORTHWEST IOWA

CITY           SKY/WX    TMP DP  RH WIND       PRES   REMARKS
CHEROKEE       PTCLDY    78  77  97 SE6       29.88S
DENISON        PTCLDY    81  73  78 S10G20    29.86S
ESTHERVILLE    MOCLDY    76  76 100 E7        29.91F
LE MARS        CLOUDY    79  77  94 S6        29.86S
SHELDON        MOCLDY    77  77 100 SE6       29.87F
SIOUX CITY     CLOUDY    80  77  90 SW5       29.88R
SPENCER        PTCLDY    78  76  93 E8        29.90F
STORM LAKE     CLOUDY    77  77 100 SE7       29.90F
$$

ABBREVIATIONS USED IN REMARKS
   TC - TEMPERATURE IN CELSIUS
  WCI - WIND CHILL INDEX
   HX - HEAT INDEX
  VSB - VISIBILITY




USA.gov is the U.S. government's official web portal to all federal, state and local government web resources and services.